Location: Lake Arresoe
(56.0000°N, 12.5000°E)
Time: 09:46:24
(UTC+02:00)

Resurs 1-4 Rocket - Pass Details

Date: 16 August 2020
Orbit: 799 x 815 km, 98.6° (Epoch: 23 September)

Event Time Altitude Azimuth Distance (km) Brightness Sun altitude
Rises 03:05:40 0° 16° (NNE) 3,333 6.9 -16.6°
Reaches altitude 10° 03:08:01 10° 17° (NNE) 2,396 5.8 -16.4°
Maximum altitude 03:13:20 85° 107° (ESE) 813 2.1 -16.0°
Enters shadow 03:16:36 24° 195° (SSW) 1,608 3.1 -15.8°
